Regional Weather Roundup
Issued by NWS

Home | Current Version | Previous Version | Graphics & Text | Print | Product List | Glossary On
Versions: 1 2 3 4 5 6 7 8 9 10 11 12 13 14 15 16 17 18 19 20 21 22 23 24 25 26 27 28 29 30 31 32 33 34 35 36 37 38 39 40 41 42 43 44 45 46 47 48 49 50
000
ASUS43 KIND 210309
RWRIN

WEATHER ROUNDUP FOR INDIANA
NATIONAL WEATHER SERVICE INDIANAPOLIS IN
1100 PM EDT THU JUL 20 2017

NOTE: "FAIR" INDICATES FEW OR NO CLOUDS BELOW 12,000 FEET WITH NO
SIGNIFICANT WEATHER AND/OR OBSTRUCTIONS TO VISIBILITY.

* - STATION DOES NOT REPORT WEATHER SUCH AS PRECIPITATION OR FOG.

+ - STATION NOT QUALITY CONTROLLED BY THE NATIONAL WEATHER SERVICE.
    USE DATA WITH CAUTION...ESPECIALLY DEWPOINT AND RELATIVE
    HUMIDITY OBSERVATIONS.

INZ001>003-010>013-019-020-210400-
NORTHWEST INDIANA

CITY           SKY/WX    TMP DP  RH WIND       PRES   REMARKS
GARY /AIRPORT/ PTCLDY    77  70  78 CALM      29.97S
KNOX *+        PTCLDY    73  73 100 N5        29.97S
LA PORTE +     PTCLDY    74  73  94 CALM      29.98F
MICHIGAN CITY+ PTCLDY    72  72 100 CALM      29.98S
MONTICELLO +   CLEAR     80  79  96 CALM      29.95F
RENSSELAER +   MOCLDY    79  75  89 CALM      29.96F
VALPARAISO     PTCLDY    77  74  90 CALM      29.98S

$$

LMZ046-743>745-210400-
SOUTHERN LAKE MICHIGAN

STATION/POSITION TIME  TEMP    WIND        PRES    WAVE
                       AIR SEA DIR/SP/G            HT
                 (UTC) (F)     (DEG/KT/KT) (MB)    (FT)
BURNS HARBOR     0240   76      70/  3/  4 1015.2S
MICHIGAN CITY    0240   77      80/  2/  2   N/A
5NW MICH CITY    0300   75 74  110/  2/  2   N/A     0

$$

INZ004-005-014>016-021>024-210400-
NORTH CENTRAL INDIANA

CITY           SKY/WX    TMP DP  RH WIND       PRES   REMARKS
GOSHEN         MOCLDY    76  71  85 W3        29.97S
LOGANSPORT +   MOCLDY    79  75  89 CALM      29.97F
PERU/GRISSOM   DRIZZLE   81  79  96 CALM      29.96F
ROCHESTER +    CLEAR     79  77  94 CALM      29.97F
SOUTH BEND     CLEAR     75  71  87 CALM      29.97F
WARSAW +       MOCLDY    77  75  94 N3        29.97S

$$

INZ006>009-017-018-025>027-210400-
NORTHEAST INDIANA

CITY           SKY/WX    TMP DP  RH WIND       PRES   REMARKS
ANGOLA *+      CLEAR     75  68  78 CALM      29.98R
AUBURN +       CLEAR     77  72  83 CALM      29.98S
FORT WAYNE     MOCLDY    79  74  84 SW7       29.97S
HUNTINGTON +   PTCLDY    78  76  95 CALM      29.97S
KENDALLVILLE + CLOUDY   N/A N/A N/A CALM      29.99R

$$

INZ028-029-035-036-043>045-051>053-210400-
WEST CENTRAL INDIANA

CITY           SKY/WX    TMP DP  RH WIND       PRES   REMARKS
GREENCASTLE +  PTCLDY    77  75  94 CALM      30.00S
LAFAYETTE      MOCLDY    81  79  94 CALM      29.95S
TERRE HAUTE    CLEAR     83  74  74 SW5       29.98R

$$

INZ030>032-037>040-046>048-054>057-064-065-210400-
CENTRAL INDIANA

CITY           SKY/WX    TMP DP  RH WIND       PRES   REMARKS
CP ATTERBURY + CLEAR     77  73  88 CALM      30.00S
FRANKFORT +    CLOUDY    82  79  90 CALM      29.99S
INDIANAPOLIS   PTCLDY    81  77  88 SW8       29.98S
-EAGLE CREEK   MOCLDY    83  76  79 MISG      29.98S
KOKOMO +       MOCLDY    80  78  94 CALM      29.98F
MARION +       CLOUDY    79  75  89 CALM      29.99S
MT COMFORT *+  CLEAR     79  75  89 S3        30.00S
SHELBYVILLE    CLEAR     80  74  81 S6        29.99R
ZIONSVILLE +   PTCLDY    79  76  90 S6        29.99S

$$

INZ033-034-041-042-049-050-058-059-210400-
EAST CENTRAL INDIANA

CITY           SKY/WX    TMP DP  RH WIND       PRES   REMARKS
MUNCIE         CLOUDY    84  74  71 CALM      29.99R
RICHMOND +     PTCLDY    73  73 100 S7        30.03R

$$

INZ060-061-067>069-081>083-085>088-210400-
SOUTHWEST INDIANA

CITY           SKY/WX    TMP DP  RH WIND       PRES   REMARKS
EVANSVILLE     CLOUDY    84  74  71 CALM      30.01R
HUNTINGBURG *+ PTCLDY    80  75  84 S5        30.02R

$$

INZ062-063-066-070>080-084-089>092-210400-
SOUTH CENTRAL AND SOUTHEAST INDIANA

CITY           SKY/WX    TMP DP  RH WIND       PRES   REMARKS
BEDFORD +      CLEAR     81  72  74 SW3       30.01R
BLOOMINGTON    CLEAR     80  73  79 SW7       30.00S
MADISON *+     CLEAR     79  72  78 S3        30.05R
NORTH VERNON + CLEAR     77  73  88 S6        30.01S
SEYMOUR +      PTCLDY    79  75  89 S6        30.01R

$$




USA.gov is the U.S. government's official web portal to all federal, state and local government web resources and services.